Wright-Patt AFB, OH

11:31 AM EDT on April 27, 2017 (GMT -0400)
Wright-Patterson Air Force Base

Weather History for KFFO - September, 2013

Change the Weather History Date:

Thursday, September 26, 2013

  Actual Average Record
Temperature  
Mean Temperature 62 °F -  
Max Temperature 79 °F 70 °F 86 °F (1998)
Min Temperature 46 °F 47 °F 41 °F (2001)
Degree Days  
Heating Degree Days 3    
Growing Degree Days 12 (Base 50)    
Moisture  
Dew Point 51 °F    
Average Humidity 76    
Maximum Humidity 100    
Minimum Humidity 34    
Precipitation  
Precipitation 0.00 in - - ()
Sea Level Pressure  
Sea Level Pressure 30.02 in    
Wind  
Wind Speed 1 mph (NNE)    
Max Wind Speed 9 mph    
Max Gust Speed -    
Visibility 8 miles    
Events Fog , Rain    
Averages and records for this station are not official NWS values.
T = Trace of Precipitation, MM = Missing Value Source: NWS Daily Summary

Daily Weather History Graph

Daily Weather History Graph

Search for Another Location

Airport or City:

Trip Planner

Search our weather history database for the weather conditions in past years. The results will help you decide how hot, cold, wet, or windy it might be!

Date:

Astronomy

Sep. 26, 2013 Rise Set
Actual Time 7:27 AM EDT 7:26 PM EDT
Civil Twilight 7:00 AM EDT 7:53 PM EDT
Nautical Twilight 6:29 AM EDT 8:24 PM EDT
Astronomical Twilight 5:57 AM EDT 8:56 PM EDT
Moon No Moon Rise 2:18 PM EDT (9/26)
Length of Visible Light 12h 52m
Length of Day
11h 58m
Waning Gibbous, 55% of the Moon is Illuminated
Sep 26
Waning Gibbous
Sep 26
Last Quarter
Oct 4
New
Oct 11
First Quarter
Oct 18
Full

Hourly Weather History & Observations

Time (EDT) Temp. Dew Point Humidity Pressure Visibility Wind Dir Wind Speed Gust Speed Precip Events Conditions
12:48 AM 57.2 °F 51.8 °F 82% 29.96 in 5.0 mi Calm Calm - N/A   Haze
12:58 AM 56.5 °F 52.2 °F 85% 29.96 in 4.0 mi Calm Calm - N/A   Haze
1:08 AM 55.4 °F 51.8 °F 88% 29.95 in 6.0 mi Calm Calm - N/A   Haze
1:28 AM 55.4 °F 53.6 °F 94% 29.95 in 1.0 mi Calm Calm - N/A   Clear
1:38 AM 55.4 °F 51.8 °F 88% 29.95 in 2.0 mi Calm Calm - N/A   Clear
1:58 AM 55.4 °F 51.8 °F 88% 29.96 in 10.0 mi Calm Calm - N/A Fog Shallow Fog
2:58 AM 55.4 °F 51.8 °F 88% 29.96 in 10.0 mi Calm Calm - N/A Fog Shallow Fog
3:18 AM 53.6 °F 51.8 °F 94% 29.95 in 8.0 mi Calm Calm - N/A Fog Shallow Fog
3:48 AM 50.0 °F 46.4 °F 87% 29.96 in 7.0 mi SW 2.3 mph - N/A Fog Shallow Fog
3:55 AM 48.7 °F 46.8 °F 93% 29.96 in 7.0 mi SW 2.3 mph - N/A Fog Shallow Fog
4:58 AM 48.4 °F 46.6 °F 93% 29.98 in 6.0 mi SW 2.3 mph - N/A   Clear
5:13 AM 46.4 °F 44.6 °F 93% 29.97 in 1.5 mi Calm Calm - N/A   Partly Cloudy
5:28 AM 46.4 °F 46.4 °F 100% 29.98 in 2.5 mi Calm Calm - N/A   Clear
5:38 AM 46.4 °F 46.4 °F 100% 29.98 in 7.0 mi Calm Calm - N/A Fog Shallow Fog
5:58 AM 48.2 °F 46.4 °F 93% 30.00 in 5.0 mi Calm Calm - N/A   Clear
6:38 AM 48.2 °F 48.2 °F 100% 30.00 in 6.0 mi Calm Calm - N/A   Clear
6:58 AM 49.8 °F 48.4 °F 95% 30.01 in 6.0 mi Calm Calm - N/A   Clear
7:58 AM 46.9 °F 45.1 °F 93% 30.03 in 9.0 mi Calm Calm - N/A Fog Shallow Fog
8:58 AM 54.1 °F 52.0 °F 92% 30.04 in 10.0 mi NNE 2.3 mph - N/A   Clear
9:58 AM 58.5 °F 53.6 °F 84% 30.06 in 10.0 mi NNE 4.6 mph - N/A   Clear
10:58 AM 64.0 °F 55.9 °F 75% 30.06 in 10.0 mi Variable 3.5 mph - N/A   Clear
11:06 AM 64.4 °F 57.2 °F 77% 30.05 in 10.0 mi Variable 2.3 mph - N/A Rain Light Rain
11:15 AM 66.2 °F 57.2 °F 73% 30.05 in 10.0 mi Variable 4.6 mph - N/A   Clear
11:18 AM 66.2 °F 57.2 °F 73% 30.05 in 10.0 mi Variable 4.6 mph - N/A   Light Drizzle
11:29 AM 68.0 °F 57.2 °F 68% 30.05 in 10.0 mi Variable 2.3 mph - N/A   Clear
11:58 AM 71.4 °F 57.9 °F 62% 30.05 in 10.0 mi Variable 3.5 mph - 0.00 in   Clear
12:58 PM 75.2 °F 58.3 °F 56% 30.05 in 10.0 mi ENE 3.5 mph - N/A   Partly Cloudy
1:34 PM 77.0 °F 55.4 °F 47% 30.04 in 10.0 mi NE 4.6 mph - N/A   Partly Cloudy
1:58 PM 76.5 °F 55.4 °F 48% 30.04 in 10.0 mi Variable 3.5 mph - N/A   Partly Cloudy
2:58 PM 77.5 °F 53.6 °F 43% 30.03 in 10.0 mi North 6.9 mph - N/A   Clear
3:58 PM 78.3 °F 48.9 °F 36% 30.02 in 10.0 mi NE 9.2 mph - N/A   Clear
4:58 PM 78.4 °F 48.2 °F 34% 30.03 in 10.0 mi NE 5.8 mph - N/A   Clear
5:58 PM 78.1 °F 48.0 °F 35% 30.03 in 10.0 mi East 5.8 mph - N/A   Clear
6:58 PM 75.0 °F 49.5 °F 40% 30.04 in 10.0 mi NNE 4.6 mph - N/A   Clear
7:58 PM 64.9 °F 53.1 °F 65% 30.06 in 10.0 mi Calm Calm - N/A   Clear
8:58 PM 60.4 °F 52.0 °F 74% 30.08 in 10.0 mi Calm Calm - N/A   Clear
9:58 PM 59.7 °F 52.5 °F 77% 30.10 in 10.0 mi Calm Calm - N/A   Clear
10:58 PM 60.1 °F 49.8 °F 69% 30.09 in 10.0 mi North 2.3 mph - N/A   Clear
11:58 PM 59.0 °F 48.2 °F 67% 30.10 in 10.0 mi North 2.3 mph - N/A   Clear